Location: Castle
(40.7167°S, 175.9500°E)
Time: 02:56:41
(UTC+00:00)

ARIANE 5 R/B - Pass Details

Date: 04 August 2024
Orbit: 748 x 792 km, 98.8° (Epoch: 07 September)

Event Time Altitude Azimuth Distance (km) Brightness Sun altitude
Rises 16:12:37 0° 29° (NNE) 3,276 6.0 -35.4°
Reaches altitude 10° 16:14:59 10° 34° (NE) 2,350 5.3 -34.9°
Enters shadow 16:17:01 24° 43° (NE) 1,605 4.4 -34.6°
